Location: Mahannah Oil Field
(37.4664°N, 96.6003°W)
Time: 15:05:01
(UTC+00:00)

Vanguard 2 Rocket - Pass Details

Date: 28 January 2021
Orbit: 554 x 3325 km, 32.9° (Epoch: 06 March)

Event Time Altitude Azimuth Distance (km) Brightness Sun altitude
Rises 17:42:13 0° 212° (SSW) 7,252 12.0 32.9°
Reaches altitude 10° 17:47:51 10° 205° (SSW) 6,275 12.0 33.2°
Maximum altitude 18:04:32 35° 149° (SSE) 4,106 12.0 33.9°
Drops below altitude 10° 18:17:16 10° 91° (E) 4,860 10.8 34.3°
Sets 18:20:53 0° 82° (E) 5,509 10.9 34.4°
